Location: Newark
(50.0306°N, 2.3272°E)
Time: 13:55:58
(UTC+00:00)

Transit 2A Rocket - Pass Details

Date: 10 December 2019
Orbit: 593 x 910 km, 66.7° (Epoch: 28 January)

Event Time Altitude Azimuth Distance (km) Brightness Sun altitude
Rises 21:26:58 0° 321° (NW) 2,841 - -52.0°
Reaches altitude 10° 21:31:35 10° 7° (N) 1,951 - -52.7°
Maximum altitude 21:32:06 10° 14° (NNE) 1,943 - -52.7°
Drops below altitude 10° 21:32:37 10° 21° (NNE) 1,958 - -52.8°
Sets 21:37:20 0° 66° (ENE) 2,915 - -53.4°
